TimeEST,TemperatureF,Dew PointF,Humidity,Sea Level PressureIn,VisibilityMPH,Wind Direction,Wind SpeedMPH,Gust SpeedMPH,PrecipitationIn,Events,Conditions,WindDirDegrees,DateUTC
12:13 AM,32.9,32.9,100,30.18,4.0,Calm,Calm,-,N/A,,Clear,0,2012-11-20 05:13:00
12:33 AM,32.7,32.7,100,30.18,5.0,Calm,Calm,-,N/A,,Clear,0,2012-11-20 05:33:00
12:53 AM,32.0,32.0,100,30.17,4.0,Calm,Calm,-,N/A,,Clear,0,2012-11-20 05:53:00
1:13 AM,32.4,32.4,100,30.17,3.0,Calm,Calm,-,N/A,,Clear,0,2012-11-20 06:13:00
1:33 AM,32.9,32.9,100,30.17,4.0,Calm,Calm,-,N/A,,Clear,0,2012-11-20 06:33:00
1:53 AM,32.4,32.4,100,30.16,4.0,Calm,Calm,-,N/A,,Clear,0,2012-11-20 06:53:00
2:13 AM,31.8,31.8,100,30.16,4.0,Calm,Calm,-,N/A,,Clear,0,2012-11-20 07:13:00
2:32 AM,32.4,32.4,100,30.16,5.0,Calm,Calm,-,N/A,,Clear,0,2012-11-20 07:32:00
2:53 AM,33.3,33.3,100,30.15,5.0,Calm,Calm,-,N/A,,Mostly Cloudy,0,2012-11-20 07:53:00
3:13 AM,32.9,32.9,100,30.15,4.0,Calm,Calm,-,N/A,,Overcast,0,2012-11-20 08:13:00
3:33 AM,33.6,33.6,100,30.14,7.0,Calm,Calm,-,N/A,,Overcast,0,2012-11-20 08:33:00
3:53 AM,33.3,33.3,100,30.14,5.0,Calm,Calm,-,N/A,,Mostly Cloudy,0,2012-11-20 08:53:00
4:13 AM,33.6,33.6,100,30.13,4.0,Calm,Calm,-,N/A,,Scattered Clouds,0,2012-11-20 09:13:00
4:32 AM,33.1,33.1,100,30.13,3.0,Calm,Calm,-,N/A,,Mostly Cloudy,0,2012-11-20 09:32:00
4:53 AM,33.3,33.3,100,30.13,5.0,Calm,Calm,-,N/A,,Overcast,0,2012-11-20 09:53:00
5:13 AM,34.3,34.3,100,30.13,4.0,North,-9999.0,-,N/A,,Overcast,0,2012-11-20 10:13:00
5:33 AM,35.1,35.1,100,30.14,4.0,Calm,Calm,-,N/A,,Overcast,0,2012-11-20 10:33:00
5:53 AM,34.9,34.9,100,30.14,4.0,Calm,Calm,-,N/A,,Overcast,0,2012-11-20 10:53:00
6:13 AM,35.6,35.6,100,30.13,5.0,Calm,Calm,-,N/A,,Overcast,0,2012-11-20 11:13:00
6:33 AM,36.3,36.3,100,30.13,5.0,Calm,Calm,-,N/A,,Overcast,0,2012-11-20 11:33:00
6:53 AM,36.0,36.0,100,30.13,4.0,Calm,Calm,-,N/A,,Overcast,0,2012-11-20 11:53:00
7:13 AM,36.3,36.3,100,30.13,4.0,Calm,Calm,-,N/A,,Overcast,0,2012-11-20 12:13:00
7:33 AM,36.1,36.1,100,30.13,4.0,Calm,Calm,-,N/A,,Overcast,0,2012-11-20 12:33:00
7:53 AM,36.5,36.5,100,30.13,3.0,Calm,Calm,-,N/A,,Overcast,0,2012-11-20 12:53:00
8:13 AM,37.8,37.8,100,30.13,3.0,Calm,Calm,-,N/A,,Overcast,0,2012-11-20 13:13:00
8:33 AM,39.2,39.2,100,30.13,3.0,Calm,Calm,-,N/A,,Mostly Cloudy,0,2012-11-20 13:33:00
8:53 AM,40.6,40.6,100,30.13,3.0,Calm,Calm,-,N/A,,Overcast,0,2012-11-20 13:53:00
9:13 AM,42.3,42.3,100,30.14,4.0,Calm,Calm,-,N/A,,Overcast,0,2012-11-20 14:13:00
9:33 AM,43.3,43.3,100,30.14,5.0,Calm,Calm,-,N/A,,Overcast,0,2012-11-20 14:33:00
9:53 AM,44.6,44.4,99,30.13,7.0,Calm,Calm,-,N/A,,Overcast,0,2012-11-20 14:53:00
10:13 AM,46.4,44.2,92,30.12,7.0,Calm,Calm,-,N/A,,Overcast,0,2012-11-20 15:13:00
10:33 AM,47.8,43.7,86,30.13,7.0,Calm,Calm,-,N/A,,Scattered Clouds,0,2012-11-20 15:33:00
10:53 AM,49.1,41.7,76,30.13,10.0,Calm,Calm,-,N/A,,Scattered Clouds,0,2012-11-20 15:53:00
11:13 AM,50.0,42.6,76,30.13,10.0,Calm,Calm,-,N/A,,Scattered Clouds,0,2012-11-20 16:13:00
11:33 AM,50.9,40.6,68,30.12,10.0,Calm,Calm,-,N/A,,Scattered Clouds,0,2012-11-20 16:33:00
11:53 AM,51.6,41.2,68,30.12,10.0,Calm,Calm,-,N/A,,Mostly Cloudy,0,2012-11-20 16:53:00
12:13 PM,51.8,39.4,63,30.11,10.0,Calm,Calm,-,N/A,,Scattered Clouds,0,2012-11-20 17:13:00
12:33 PM,52.3,39.4,61,30.10,10.0,Calm,Calm,-,N/A,,Mostly Cloudy,0,2012-11-20 17:33:00
12:53 PM,52.7,39.0,60,30.10,10.0,Calm,Calm,-,N/A,,Overcast,0,2012-11-20 17:53:00
1:13 PM,54.1,38.1,55,30.10,10.0,Calm,Calm,-,N/A,,Overcast,0,2012-11-20 18:13:00
1:33 PM,54.5,39.4,57,30.08,10.0,Calm,Calm,-,N/A,,Overcast,0,2012-11-20 18:33:00
1:53 PM,54.9,39.2,56,30.08,10.0,SSE,3.5,-,N/A,,Overcast,150,2012-11-20 18:53:00
2:12 PM,55.0,39.4,56,30.07,10.0,SE,3.5,-,N/A,,Mostly Cloudy,130,2012-11-20 19:12:00
2:33 PM,56.3,39.4,53,30.07,10.0,ESE,5.8,-,N/A,,Overcast,120,2012-11-20 19:33:00
2:53 PM,56.3,38.8,52,30.07,10.0,Calm,Calm,-,N/A,,Overcast,0,2012-11-20 19:53:00
3:12 PM,55.4,39.4,55,30.07,10.0,Calm,Calm,-,N/A,,Overcast,0,2012-11-20 20:12:00
3:33 PM,54.7,38.8,55,30.08,10.0,Calm,Calm,-,N/A,,Overcast,0,2012-11-20 20:33:00
3:53 PM,53.8,39.2,58,30.08,10.0,South,3.5,-,N/A,,Overcast,190,2012-11-20 20:53:00
4:13 PM,53.6,39.0,58,30.09,10.0,Calm,Calm,-,N/A,,Overcast,0,2012-11-20 21:13:00
4:33 PM,52.5,42.1,68,30.10,10.0,Calm,Calm,-,N/A,,Overcast,0,2012-11-20 21:33:00
4:53 PM,52.7,40.8,64,30.11,10.0,Calm,Calm,-,N/A,,Overcast,0,2012-11-20 21:53:00
5:13 PM,50.7,42.1,72,30.11,10.0,Calm,Calm,-,N/A,,Overcast,0,2012-11-20 22:13:00
5:33 PM,49.5,42.1,76,30.12,10.0,Calm,Calm,-,N/A,Rain,Light Rain,0,2012-11-20 22:33:00
5:53 PM,49.5,42.4,77,30.12,10.0,Calm,Calm,-,N/A,Rain,Light Rain,0,2012-11-20 22:53:00
6:13 PM,49.8,42.3,75,30.12,10.0,Calm,Calm,-,N/A,Rain,Light Rain,0,2012-11-20 23:13:00
6:33 PM,48.4,43.2,82,30.13,10.0,Calm,Calm,-,N/A,,Overcast,0,2012-11-20 23:33:00
6:53 PM,47.7,46.8,97,30.13,10.0,Calm,Calm,-,N/A,,Overcast,0,2012-11-20 23:53:00
7:13 PM,47.7,43.3,85,30.13,10.0,Calm,Calm,-,N/A,,Overcast,0,2012-11-21 00:13:00
7:33 PM,47.3,44.2,89,30.13,10.0,Calm,Calm,-,N/A,,Overcast,0,2012-11-21 00:33:00
7:53 PM,46.6,45.7,97,30.14,10.0,Calm,Calm,-,N/A,,Overcast,0,2012-11-21 00:53:00
8:13 PM,46.4,44.4,93,30.14,10.0,Calm,Calm,-,N/A,,Overcast,0,2012-11-21 01:13:00
8:33 PM,46.4,46.4,100,30.14,10.0,Calm,Calm,-,N/A,,Overcast,0,2012-11-21 01:33:00
8:53 PM,46.2,46.2,100,30.14,10.0,Calm,Calm,-,N/A,,Overcast,0,2012-11-21 01:53:00
9:13 PM,46.4,46.4,100,30.14,10.0,Calm,Calm,-,N/A,,Overcast,0,2012-11-21 02:13:00
9:33 PM,45.9,45.9,100,30.14,10.0,Calm,Calm,-,N/A,,Overcast,0,2012-11-21 02:33:00
9:53 PM,45.7,45.7,100,30.14,10.0,Calm,Calm,-,N/A,,Overcast,0,2012-11-21 02:53:00
10:13 PM,46.4,46.4,100,30.13,10.0,Calm,Calm,-,N/A,,Overcast,0,2012-11-21 03:13:00
10:33 PM,45.3,45.3,100,30.14,10.0,Calm,Calm,-,N/A,,Overcast,0,2012-11-21 03:33:00
10:53 PM,45.3,45.3,100,30.14,10.0,Calm,Calm,-,N/A,,Overcast,0,2012-11-21 03:53:00
11:13 PM,45.1,45.1,100,30.15,10.0,Calm,Calm,-,N/A,,Overcast,0,2012-11-21 04:13:00
11:33 PM,46.2,45.9,99,30.15,10.0,Calm,Calm,-,N/A,,Overcast,0,2012-11-21 04:33:00
11:53 PM,44.6,44.6,100,30.15,10.0,Calm,Calm,-,N/A,,Overcast,0,2012-11-21 04:53:00